Simultaneous Nadir Overpasses (SNOs) Predictions

Prediction of SNOs between AQUA and NOAA-19 Satellite Orbit:

Table of predicted SNOs for the next 14.0 days since TLE Epoch: 3/20/2021
Index Date (AQUA) Time (AQUA) Lat,Lon (AQUA) SZA (AQUA ) Date (NOAA-19) Time (NOAA-19) Lat,Lon (NOAA-19) SZA (NOAA-19 ) Distance(km) Time Diff (sec)
1 03/20/2021 16:03:33 79.03, -84.68 79.96 03/20/2021 16:03:17 79.06, -84.69 79.99 3.83 16
2 03/22/2021 21:37:17 -79.05, 11.77 100.91 03/22/2021 21:36:36 -79.02, 11.74 100.92 3.00 41
3 03/22/2021 22:26:45 79.07, 179.24 79.11 03/22/2021 22:27:29 79.07, 179.37 79.08 2.79 44
4 03/25/2021 03:10:56 78.80, 109.76 77.86 03/25/2021 03:09:51 78.72, 106.27 78.12 76.10 65
5 03/25/2021 04:00:28 -79.05, -84.07 101.81 03/25/2021 04:00:47 -79.06, -83.92 101.82 3.34 19
6 03/27/2021 09:34:12 79.02, 12.71 77.26 03/27/2021 09:33:54 79.03, 12.62 77.28 2.05 18
7 03/27/2021 10:23:46 -79.34, 178.34 102.30 03/27/2021 10:24:49 -79.37,-177.15 102.65 92.75 63
8 03/29/2021 15:07:55 -79.00, 109.38 103.65 03/29/2021 15:07:12 -79.02, 109.34 103.61 2.25 43
9 03/29/2021 15:57:23 79.03, -83.18 76.39 03/29/2021 15:58:06 79.03, -83.32 76.38 3.00 43
10 03/31/2021 21:31:06 -79.02, 13.49 104.52 03/31/2021 21:31:24 -79.02, 13.38 104.51 2.19 18



Historial Predications of SNOs between AQUA and NOAA-19
